This demonstration page uses our WeatherBlox Daily Observations layout. Learn more.

Left ArrowRight Arrow

Hourly Observations for May 13, 2020

Temp ( °F °C ) Dew Point ( °F °C ) Humidity (%) Winds ( mph kmh ) Pressure ( in mb ) Visibility ( mi km ) Precip ( " mm )
12:53 am 00:53 Clear 39 3.9 36 2.2 89 89 N N/A 30.27 1025 10 16.0934 N/A
1:53 am 01:53 Clear 38 3.3 35 1.7 89 89 N N/A 30.27 1025 10 16.0934 N/A
2:53 am 02:53 Clear 37 2.8 35 1.7 93 93 N N/A 30.27 1025 10 16.0934 N/A
3:53 am 03:53 Clear 36 2.2 34 1.1 93 93 N N/A 30.28 1025 9 14.48406 N/A
4:53 am 04:53 Partly Cloudy 36 2.2 34 1.1 93 93 N N/A 30.29 1026 7 11.26538 N/A
5:53 am 05:53 Mostly Cloudy 36 2.2 34 1.1 93 93 N N/A 30.29 1026 9 14.48406 N/A
6:53 am 06:53 Cloudy 40 4.4 38 3.3 93 93 N N/A 30.31 1026 10 16.0934 N/A
7:53 am 07:53 Cloudy 43 6.1 39 3.9 86 86 N N/A 30.32 1027 10 16.0934 N/A
8:53 am 08:53 Cloudy 47 8.3 42 5.6 83 83 N N/A 30.34 1028 10 16.0934 N/A
9:53 am 09:53 Mostly Sunny 54 12.2 42 5.6 64 64 VRB 5 7 30.34 1027 10 16.0934 N/A
10:53 am 10:53 Mostly Cloudy 59 15 38 3.3 46 46 VRB 6 9 30.33 1027 10 16.0934 N/A
11:53 am 11:53 Cloudy 58 14.4 39 3.9 50 50 VRB 7 11 30.32 1027 10 16.0934 N/A
12:53 pm 12:53 Cloudy 59 15 40 4.4 49 49 S 8 13 30.32 1027 10 16.0934 N/A
1:53 pm 13:53 Cloudy 59 15 40 4.4 49 49 VRB 5 7 30.3 1026 10 16.0934 N/A
2:53 pm 14:53 Cloudy 59 15 38 3.3 46 46 VRB 6 9 30.29 1026 10 16.0934 N/A
3:53 pm 15:53 Cloudy 59 15 38 3.3 46 46 VRB 3 6 30.27 1025 10 16.0934 N/A
4:53 pm 16:53 Cloudy 59 15 38 3.3 46 46 VRB 7 11 30.25 1024 10 16.0934 N/A
5:53 pm 17:53 Cloudy 59 15 40 4.4 49 49 VRB 7 11 30.24 1024 10 16.0934 N/A
6:53 pm 18:53 Cloudy 59 15 41 5 51 51 VRB 5 7 30.22 1023 10 16.0934 N/A
7:53 pm 19:53 Cloudy 59 15 43 6.1 56 56 N N/A 30.21 1023 10 16.0934 N/A
8:42 pm 20:42 Cloudy 58 14.4 44 6.7 60 60 VRB 3 6 30.2 1023 10 16.0934 N/A
8:53 pm 20:53 Cloudy 58 14.4 45 7.2 62 62 N N/A 30.2 1023 10 16.0934 N/A
9:08 pm 21:08 Cloudy 58 14.4 45 7.2 62 62 N N/A 30.2 1023 10 16.0934 N/A
9:26 pm 21:26 Cloudy 57 13.9 46 7.8 67 67 VRB 3 6 30.2 1023 10 16.0934 N/A
9:35 pm 21:35 Cloudy 57 13.9 46 7.8 67 67 VRB 5 7 30.2 1023 10 16.0934 N/A
9:44 pm 21:44 Cloudy 57 13.9 46 7.8 67 67 VRB 3 6 30.2 1023 10 16.0934 N/A
9:53 pm 21:53 Cloudy 57 13.9 46 7.8 67 67 SSE 5 7 30.2 1023 10 16.0934 N/A
10:48 pm 22:48 Cloudy 55 13 46 8 72 72 VRB 5 7 30.2 1023 10 16.0934 N/A
10:53 pm 22:53 Cloudy 56 13.3 47 8.3 72 72 VRB 5 7 30.2 1023 10 16.0934 N/A
11:38 pm 23:38 Cloudy 55 12.8 48 8.9 77 77 VRB 3 6 30.19 1022 10 16.0934 N/A
11:53 pm 23:53 Cloudy 55 12.8 49 9.4 80 80 VRB 3 6 30.18 1022 10 16.0934 N/A

Powered by AerisWeather